• In Hungary
  • List of Countries
  • For 7 days
  • Water Temperature
  • Satellite Maps
  • Weather Map
  • News
  • Weather Widgets
  • user-avatar
    Login

    Hourly Weather Altamura

    Today, 24 September, Monday

    Time Temperature Precipitation Wind Pressure Humidity
    00:00 +23°C° 0 mm 2 mps 724 mmHg 71%
    01:00 +23°C° 0 mm 2 mps 723 mmHg 73%
    02:00 +23°C° 0 mm 2 mps 723 mmHg 73%
    03:00 +21°C° 0 mm 2 mps 723 mmHg 72%
    04:00 +21°C° 0 mm 2 mps 723 mmHg 72%
    05:00 +21°C° 0 mm 2 mps 722 mmHg 70%
    06:00 +21°C° 0 mm 2 mps 722 mmHg 68%
    07:00 +23°C° 0 mm 2 mps 722 mmHg 66%
    08:00 +25°C° 0 mm 2 mps 722 mmHg 60%
    09:00 +26°C° 0 mm 2 mps 723 mmHg 53%
    10:00 +28°C° 0 mm 2 mps 723 mmHg 47%
    11:00 +29°C° 0 mm 2 mps 723 mmHg 45%
    12:00 +30°C° 0 mm 2 mps 723 mmHg 43%
    13:00 +31°C° 0 mm 2 mps 723 mmHg 41%
    14:00 +30°C° 0 mm 3 mps 723 mmHg 43%
    15:00 +30°C° 0 mm 3 mps 722 mmHg 45%
    16:00 +29°C° 0 mm 3 mps 722 mmHg 48%
    17:00 +28°C° 0.1 mm 4 mps 723 mmHg 55%
    18:00 +26°C° 0.1 mm 4 mps 723 mmHg 62%
    19:00 +25°C° 0.1 mm 5 mps 724 mmHg 70%
    20:00 +22°C° 0.1 mm 6 mps 724 mmHg 68%
    21:00 +21°C° 0.1 mm 7 mps 725 mmHg 67%
    22:00 +20°C° 0.1 mm 8 mps 725 mmHg 66%
    23:00 +20°C° 0 mm 8 mps 726 mmHg 67%

    Tomorrow, 25 September, Tuesday

    Time Temperature Precipitation Wind Pressure Humidity
    00:00 +18°C° 0 mm 7 mps 726 mmHg 68%
    01:00 +17°C° 0 mm 7 mps 726 mmHg 68%
    02:00 +17°C° 0 mm 7 mps 726 mmHg 67%
    03:00 +17°C° 0 mm 7 mps 726 mmHg 66%
    04:00 +17°C° 0 mm 6 mps 726 mmHg 65%
    05:00 +17°C° 0 mm 7 mps 727 mmHg 63%
    06:00 +17°C° 0 mm 7 mps 727 mmHg 60%
    07:00 +17°C° 0 mm 7 mps 727 mmHg 58%
    08:00 +18°C° 0 mm 7 mps 728 mmHg 53%
    09:00 +18°C° 0 mm 7 mps 728 mmHg 49%
    10:00 +20°C° 0 mm 8 mps 729 mmHg 44%
    11:00 +21°C° 0 mm 8 mps 729 mmHg 42%
    12:00 +21°C° 0 mm 8 mps 729 mmHg 40%
    13:00 +21°C° 0 mm 8 mps 729 mmHg 38%
    14:00 +21°C° 0 mm 8 mps 729 mmHg 39%
    15:00 +20°C° 0 mm 8 mps 728 mmHg 40%
    16:00 +20°C° 0 mm 8 mps 728 mmHg 40%
    17:00 +18°C° 0 mm 7 mps 728 mmHg 43%
    18:00 +17°C° 0 mm 7 mps 729 mmHg 45%
    19:00 +16°C° 0 mm 6 mps 729 mmHg 48%
    20:00 +16°C° 0 mm 6 mps 729 mmHg 48%
    21:00 +16°C° 0 mm 6 mps 730 mmHg 49%
    22:00 +15°C° 0 mm 6 mps 730 mmHg 50%
    23:00 +15°C° 0 mm 6 mps 730 mmHg 51%

    Day after tomorrow, 26 September, Wednesday

    Time Temperature Precipitation Wind Pressure Humidity
    00:00 +15°C° 0 mm 6 mps 730 mmHg 52%
    01:00 +15°C° 0 mm 5 mps 730 mmHg 53%
    02:00 +15°C° 0 mm 5 mps 730 mmHg 54%
    03:00 +14°C° 0 mm 5 mps 730 mmHg 56%
    04:00 +14°C° 0 mm 5 mps 730 mmHg 57%
    05:00 +14°C° 0 mm 6 mps 730 mmHg 55%
    06:00 +14°C° 0 mm 6 mps 731 mmHg 54%
    07:00 +14°C° 0 mm 6 mps 731 mmHg 52%
    08:00 +15°C° 0 mm 7 mps 732 mmHg 48%
    09:00 +16°C° 0 mm 7 mps 732 mmHg 44%
    10:00 +17°C° 0 mm 8 mps 733 mmHg 40%
    11:00 +18°C° 0 mm 7 mps 733 mmHg 38%
    12:00 +18°C° 0 mm 7 mps 733 mmHg 37%
    13:00 +20°C° 0 mm 7 mps 733 mmHg 36%
    14:00 +18°C° 0 mm 7 mps 732 mmHg 36%
    15:00 +19°C° 0 mm 6 mps 732 mmHg 37%
    16:00 +19°C° 0 mm 6 mps 732 mmHg 37%
    17:00 +17°C° 0 mm 5 mps 732 mmHg 39%
    18:00 +17°C° 0 mm 4 mps 732 mmHg 40%
    19:00 +15°C° 0 mm 4 mps 732 mmHg 41%
    20:00 +15°C° 0 mm 4 mps 733 mmHg 43%
    21:00 +14°C° 0 mm 3 mps 733 mmHg 46%
    22:00 +14°C° 0 mm 3 mps 733 mmHg 48%
    23:00 +14°C° 0 mm 3 mps 733 mmHg 50%

    27 September, Thursday

    Time Temperature Precipitation Wind Pressure Humidity
    00:00 +14°C° 0 mm 3 mps 732 mmHg 53%
    01:00 +13°C° 0 mm 4 mps 732 mmHg 55%
    02:00 +13°C° 0 mm 4 mps 732 mmHg 56%
    03:00 +13°C° 0 mm 4 mps 731 mmHg 57%
    04:00 +13°C° 0 mm 4 mps 731 mmHg 58%
    05:00 +13°C° 0 mm 4 mps 731 mmHg 57%
    06:00 +13°C° 0 mm 4 mps 731 mmHg 56%
    07:00 +14°C° 0 mm 4 mps 731 mmHg 55%
    08:00 +15°C° 0 mm 4 mps 731 mmHg 51%
    09:00 +18°C° 0 mm 4 mps 731 mmHg 46%
    10:00 +20°C° 0 mm 5 mps 731 mmHg 42%
    11:00 +21°C° 0 mm 5 mps 731 mmHg 40%
    12:00 +22°C° 0 mm 5 mps 730 mmHg 39%
    13:00 +22°C° 0 mm 6 mps 730 mmHg 37%
    14:00 +22°C° 0 mm 6 mps 729 mmHg 39%
    15:00 +22°C° 0 mm 6 mps 729 mmHg 41%
    16:00 +22°C° 0 mm 6 mps 728 mmHg 43%
    17:00 +20°C° 0 mm 6 mps 728 mmHg 49%
    18:00 +19°C° 0 mm 5 mps 727 mmHg 55%
    19:00 +17°C° 0 mm 5 mps 727 mmHg 61%
    20:00 +18°C° 0 mm 4 mps 727 mmHg 64%
    21:00 +17°C° 0 mm 4 mps 726 mmHg 67%
    22:00 +17°C° 0 mm 4 mps 726 mmHg 70%
    23:00 +15°C° 0 mm 4 mps 726 mmHg 70%

    28 September, Friday

    Time Temperature Precipitation Wind Pressure Humidity
    00:00 +15°C° 0 mm 4 mps 725 mmHg 70%
    01:00 +15°C° 0 mm 4 mps 725 mmHg 70%
    02:00 +15°C° 0 mm 4 mps 724 mmHg 69%
    03:00 +15°C° 0 mm 4 mps 724 mmHg 69%
    04:00 +14°C° 0 mm 4 mps 724 mmHg 68%
    05:00 +15°C° 0 mm 4 mps 724 mmHg 67%
    06:00 +15°C° 0 mm 4 mps 723 mmHg 66%
    07:00 +17°C° 0 mm 4 mps 723 mmHg 65%
    08:00 +19°C° 0 mm 4 mps 724 mmHg 60%
    09:00 +21°C° 0 mm 4 mps 724 mmHg 54%
    10:00 +22°C° 0 mm 4 mps 724 mmHg 49%
    11:00 +23°C° 0 mm 4 mps 724 mmHg 46%
    12:00 +25°C° 0 mm 4 mps 724 mmHg 43%
    13:00 +26°C° 0 mm 4 mps 724 mmHg 39%
    14:00 +25°C° 0 mm 4 mps 723 mmHg 40%
    15:00 +25°C° 0 mm 4 mps 723 mmHg 41%
    16:00 +25°C° 0 mm 3 mps 723 mmHg 42%
    17:00 +24°C° 0 mm 3 mps 723 mmHg 48%
    18:00 +21°C° 0 mm 2 mps 723 mmHg 53%
    19:00 +20°C° 0 mm 2 mps 723 mmHg 59%
    20:00 +21°C° 0 mm 1 mps 723 mmHg 61%
    21:00 +20°C° 0 mm 1 mps 723 mmHg 64%
    22:00 +20°C° 0 mm 1 mps 723 mmHg 66%
    23:00 +19°C° 0 mm 1 mps 723 mmHg 68%

    29 September, Saturday

    Time Temperature Precipitation Wind Pressure Humidity
    00:00 +19°C° 0 mm 1 mps 723 mmHg 70%
    01:00 +19°C° 0 mm 1 mps 723 mmHg 72%
    02:00 +18°C° 0 mm 1 mps 723 mmHg 73%
    03:00 +18°C° 0 mm 1 mps 723 mmHg 74%
    04:00 +18°C° 0 mm 1 mps 722 mmHg 74%
    05:00 +18°C° 0 mm 1 mps 723 mmHg 72%
    06:00 +19°C° 0 mm 1 mps 723 mmHg 70%
    07:00 +18°C° 0 mm 2 mps 723 mmHg 67%
    08:00 +21°C° 0 mm 1 mps 724 mmHg 59%
    09:00 +23°C° 0 mm 1 mps 724 mmHg 51%
    10:00 +24°C° 0 mm 1 mps 725 mmHg 43%
    11:00 +25°C° 0 mm 2 mps 725 mmHg 40%
    12:00 +26°C° 0 mm 2 mps 725 mmHg 36%
    13:00 +27°C° 0 mm 2 mps 725 mmHg 32%
    14:00 +26°C° 0 mm 2 mps 725 mmHg 34%
    15:00 +26°C° 0 mm 3 mps 725 mmHg 35%
    16:00 +26°C° 0 mm 3 mps 724 mmHg 37%
    17:00 +25°C° 0 mm 2 mps 725 mmHg 43%
    18:00 +23°C° 0 mm 2 mps 725 mmHg 48%
    19:00 +22°C° 0 mm 1 mps 725 mmHg 54%
    20:00 +21°C° 0 mm 1 mps 725 mmHg 55%
    21:00 +21°C° 0 mm 1 mps 725 mmHg 56%
    22:00 +18°C° 0 mm 0 mps 725 mmHg 58%
    23:00 +20°C° 0 mm 1 mps 725 mmHg 58%
    Show more

    3.3.7123123